Location: *
(37.9500°N, 27.3666°E)
Time: 14:58:13
(UTC+00:00)

BREEZE-M R/B - Pass Details

Date: 24 October 2021
Orbit: 597 x 26569 km, 48.9° (Epoch: 06 December)

Event Time Altitude Azimuth Distance (km) Brightness Sun altitude
Rises 17:55:19 0° 306° (NW) 2,840 6.8 -31.0°
Reaches altitude 10° 17:56:59 10° 309° (NW) 2,019 5.9 -31.4°
Enters shadow 17:59:09 39° 323° (NW) 1,127 4.1 -31.8°
